Location: Hardenberg
(52.5670°N, 6.6170°E)
Time: 19:21:41
(UTC+02:00)

ISS - Pass Details

Date: 20 May 2021
Orbit: 417 x 422 km, 51.6° (Epoch: 12 June)

Event Time Altitude Azimuth Distance (km) Brightness Sun altitude
Rises 01:18:04 0° 280° (W) 2,371 0.2 -17.4°
Reaches altitude 10° 01:20:12 10° 275° (W) 1,506 -0.9 -17.4°
Enters shadow 01:23:16 49° 214° (SSW) 552 -3.6 -17.4°
